Tracking 30995 objects as of 5-Jul-2025
HD Live streaming from Space Station
objects crossing your sky now

FENGYUN 1C DEB

Track FENGYUN 1C DEB now!
10-day predictions


NORAD ID: 29805
Int'l Code: 1999-025CX
Perigee: 859.2 km
Apogee: 1,135.6 km
Inclination: 99.5 °
Period: 104.9 minutes
Semi major axis: 7368 km
RCS: 0.0153 m2 (small)
Launch date: May 10, 1999
Source: People's Republic of China (PRC)
Launch site: Taiyaun Space Center, China (TSC)

Note: This is SATELLITE DEBRIS
Your satellite tracking list
Your tracking list is empty




NASA's NSSDC Master Catalog

Two Line Element Set (TLE):
1 29805U 99025CX  25186.11510092  .00000071  00000-0  11227-3 0  9994
2 29805  99.4768 239.2285 0187519 287.8987  70.1792 13.72593930924991
Source of the keplerian elements: AFSPC